Location: Waco, TX
(31.5480°N, 97.1670°W)
Time: 09:37:39
(UTC-05:00)

ISS - Pass Details

Date: 15 October 2019
Orbit: 411 x 421 km, 51.6° (Epoch: 18 October)

Event Time Altitude Azimuth Distance (km) Brightness Sun altitude
Rises 18:05:31 0° 313° (NW) 2,342 0.5 9.8°
Reaches altitude 10° 18:07:37 10° 312° (NW) 1,477 -0.5 9.4°
Maximum altitude 18:10:55 78° 227° (SW) 422 -3.4 8.7°
Drops below altitude 10° 18:14:12 10° 140° (SE) 1,467 -1.2 8.0°
Sets 18:16:17 0° 139° (SE) 2,325 -0.2 7.6°
